星链-31439 (STARLINK-31439 )

导读

STARLINK-31439是美国太空探索技术公司星链星座的成员卫星,于2024年3月10日发射入轨,属于星链互联网卫星星座组网部署的组成部分,承担低轨卫星互联网全球覆盖的组网任务。星链星座旨在为全球用户提供高速、低延迟的宽带互联网接入服务,该卫星进一步完善了星链低轨星座的覆盖与服务能力。

Basic Information
目录编号:
59178
目录名称:
STARLINK-31439
国际标识:
2024-045A
轨道中心:
EARTH
卫星名称:
星链-31439
卫星全名:
星链-31439 (STARLINK-31439 )
卫星状态:
在轨 (已飞行908 天)
发射日期:
2024-03-10 UTC
国别 :
美国 (US)
星等 :
--
Orbit Information
数据来源 国际轨道数据 AOE轨道数据
星历时间 2026-09-04T03:54:02+0800
9小时前
查看轨道信息
2026-08-31T11:00:00+0800
4天前
查看轨道信息
半长轴 6861.193km 6861.225km
偏心率 0.0001206 0.0002078
轨道倾角 43.004° 43.004°
近地点辐角 278.379° 288.955°
升交点赤经 163.212° 184.130°
平近点角 81.693° 196.855°
近地点 482.228km 481.662km
远地点 483.884km 484.514km
周期 94.267分钟 94.268分钟
每日圈数 15.275778 15.275672
Detailed Information
固有亮度:
5
最大亮度:
0.3
卫星平台:
Starlink v2.0 mini
覆盖范围:
全球
运营商:
太空探索技术公司
运营商所在国:
美国
制造商(研发单位):
太空探索技术公司
制造商所在国:
美国
使用方式:
暂无
Satellite Introduction
星链(Starlink)计划是由太空探索技术公司(SpaceX)提出的一个巨型低轨卫星互联网星座项目,计划在2019年至2024年间在太空搭建由约1.2万颗卫星组成的“星链”网络,其中1584颗将部署在地球上空550千米处的近地轨道,并从2020年开始工作。该卫星仍在工作。
2D Orbit Map
3D Orbit Map
Orbit Altitude Analysis Chart
Orbit Inclination Analysis Chart
Orbit Comprehensive Analysis Chart
View Comprehensive Chart